Weather Roundup
Issued by NWS Chicago, IL

Home | Current Version | Previous Version | Text Only | Print | Product List | Glossary Off
Versions: 1 2 3 4 5 6 7 8 9 10 11 12 13 14 15 16 17 18 19 20 21 22 23 24 25 26 27 28 29 30 31 32 33 34 35 36 37 38 39 40 41 42 43 44 45 46 47 48 49 50

000
NZUS59 KLOT 162308
HRRLOT

CHICAGO AREA WEATHER ROUNDUP
NATIONAL WEATHER SERVICE CHICAGO/ROMEOVILLE IL
600 PM CDT WED AUG 16 2017

NOTE: "FAIR" INDICATES FEW OR NO CLOUDS BELOW 12,000 FEET WITH NO
SIGNIFICANT WEATHER AND/OR OBSTRUCTIONS TO VISIBILITY.

* THESE STATIONS ARE NOT UNDER NWS QUALITY CONTROL. THEY ALSO MAY NOT
  REPORT WEATHER SUCH AS PRECIPITATION OR FOG.

ILZ005-006-012>014-019>023-170000-
NORTHEAST ILLINOIS

CITY           SKY/WX    TMP DP  RH WIND       PRES   REMARKS
OHARE          HVY RAIN  74  70  87 S9        29.89S FOG
MIDWAY         PTSUNNY   77  73  87 CALM      29.89F
AURORA         PTSUNNY   76  71  85 E13       29.88F
LANSING*       CLOUDY    79  71  76 CALM      29.90F HX  82
JOLIET*        CLOUDY    79  74  86 SE7       29.87F HX  83
WAUKEGAN       LGT RAIN  74  72  93 SE5       29.89S FOG
DUPAGE AIRPORT PTSUNNY   72  71  97 SE8       29.88F
WHEELING       LGT RAIN  76  74  93 S10       29.91R
MORRIS*        MOSUNNY   78  74  87 SE8       29.85F HX  80
LEWIS AIRPORT* CLOUDY    76  71  83 SE7       29.88F
NORTHERLY ISL    N/A     77  71  82 S5          N/A
$$

WIZ051-052-058>065-066-070>072-170000-
SOUTHEAST WISCONSIN

CITY           SKY/WX    TMP DP  RH WIND       PRES   REMARKS
MILWAUKEE      PTSUNNY   74  68  81 NE9       29.89F
KENOSHA*       LGT RAIN  74  68  81 E9        29.90F
RACINE*        MOSUNNY   74  68  81 E8        29.91F
WAUKESHA       SUNNY     73  63  68 E12       29.90F
WEST BEND      MOSUNNY   72  63  73 E8        29.91F
$$

INZ001>003-010>013-019-020-170000-
NORTHWEST INDIANA

CITY           SKY/WX    TMP DP  RH WIND       PRES   REMARKS
GARY*          CLOUDY    84  70  61 S5        29.90F HX  88
MICHIGAN CITY* NOT AVBL
RENSSELAER*    NOT AVBL
VALPARAISO     CLOUDY    84  71  65 S5        29.92F HX  89
$$

LMZ740>746-170000-
SOUTHERN LAKE MICHIGAN

STATION/POSITION TIME  SKY/WX   TEMP WIND        PRES    VSBY
                                AIR  DIR/SP/G
                 (UTC)          (F)  (DEG/KT/KT) (MB)    (MI)
HARRISON CRIB    2240            78  150/ 11/ 12   N/A
BURNHAM HARBOR   NOT AVBL
CALUMET HARBOR   2242            77  240/  3/  5 1012.1R
BURNS HARBOR     2240            85  180/  6/ 12 1012.9F
MICHIGAN CITY    2240            85  170/ 11/ 14   N/A
$$

ABBREVIATIONS USED IN REMARKS
   TC - TEMPERATURE IN CELSIUS
  WCI - WIND CHILL INDEX
   HX - HEAT INDEX
  VSB - VISIBILITY
$$




USA.gov is the U.S. government's official web portal to all federal, state and local government web resources and services.